Location: Allen Lane School
(37.8198°N, 89.7382°W)
Time: 03:09:49
(UTC+00:00)

Meteor 1-14 Rocket - Pass Details

Date: 03 July 2022
Orbit: 833 x 919 km, 81.3° (Epoch: 14 August)

Event Time Altitude Azimuth Distance (km) Brightness Sun altitude
Exits shadow 09:26:34 - 178° (S) 3,247 6.9 -12.7°
Reaches altitude 10° 09:28:22 10° 176° (S) 2,566 6.4 -12.5°
Maximum altitude 09:34:08 65° 96° (E) 971 4.7 -11.6°
Drops below altitude 10° 09:39:49 10° 15° (NNE) 2,525 7.6 -10.8°
Sets 09:42:15 0° 13° (NNE) 3,453 8.3 -10.4°
